GW7220 Weather Reports


Display with metric or nautical units.
time (UTC)temp
F
wind
direction
speed
MPH
gust
MPH
rain 1hr
in
rain 24hr
in
rain mn
in
humidity
%
barometer
mb
20260504173715 72 237 2.0 6.0 0.00 0.00 0.00 33 1009.6
20260504173213 72 359 3.0 4.0 0.00 0.00 0.00 34 1009.5
20260504172709 72 120 1.0 8.0 0.00 0.00 0.00 35 1009.6
20260504172206 72 34 2.0 4.0 0.00 0.00 0.00 32 1009.5
20260504171702 72 130 3.0 4.0 0.00 0.00 0.00 32 1009.9
20260504171159 72 108 2.0 6.0 0.00 0.00 0.00 34 1009.8
20260504170656 71 187 2.0 4.0 0.00 0.00 0.00 36 1009.9
20260504170154 71 5 1.0 7.0 0.00 0.00 0.00 32 1010.0
20260504160112 70 98 1.0 6.0 0.00 0.00 0.00 37 1010.9
20260504151039 68 328 2.0 6.0 0.00 0.00 0.00 38 1011.3
20260504150536 68 291 2.0 7.0 0.00 0.00 0.00 37 1011.3
20260504141002 66 123 1.0 3.0 0.00 0.00 0.00 46 1011.2
20260504140459 66 93 3.0 3.0 0.00 0.00 0.00 47 1011.5
20260504130423 61 217 2.0 6.0 0.00 0.00 0.00 54 1011.9
20260504110310 48 57 0.0 1.0 0.00 0.00 0.00 79 1012.5
20260504100228 46 66 0.0 1.0 0.00 0.00 0.00 75 1012.6
20260504081621 44 130 0.0 0.0 0.00 0.00 0.00 65 1012.2
20260504081117 44 93 0.0 0.0 0.00 0.00 0.00 63 1012.2
20260504080614 44 101 0.0 0.0 0.00 0.00 0.00 63 1012.3
20260504080111 44 72 0.0 0.0 0.00 0.00 0.00 62 1012.1
20260504050427 44 48 0.0 0.0 0.00 0.00 0.00 59 1012.2
20260504045924 45 48 0.0 0.0 0.00 0.00 0.00 58 1012.2
20260504045420 45 48 0.0 0.0 0.00 0.00 0.00 58 1012.1
20260504044916 45 55 0.0 0.0 0.00 0.00 0.00 58 1012.0
20260504044414 44 56 0.0 0.0 0.00 0.00 0.00 59 1012.1
20260504043911 44 63 0.0 0.0 0.00 0.00 0.00 59 1012.0
20260504043408 45 53 0.0 0.0 0.00 0.00 0.00 59 1012.0
20260504042905 45 53 0.0 0.0 0.00 0.00 0.00 58 1011.9
20260504042402 46 57 0.0 0.0 0.00 0.00 0.00 58 1012.0
20260504041858 46 57 0.0 0.0 0.00 0.00 0.00 58 1011.8
20260504041354 46 64 0.0 0.0 0.00 0.00 0.00 56 1011.6
20260504040850 46 66 0.0 0.0 0.00 0.00 0.00 55 1011.7
20260504040348 46 70 0.0 0.0 0.00 0.00 0.00 56 1011.8
20260504035843 46 63 0.0 0.0 0.00 0.00 0.00 59 1011.8
20260504035342 47 67 0.0 0.0 0.00 0.00 0.00 58 1011.8
20260504034838 46 68 0.0 0.0 0.00 0.00 0.00 56 1011.7
20260504034336 47 59 0.0 0.0 0.00 0.00 0.00 56 1011.5
20260504033832 47 68 0.0 0.0 0.00 0.00 0.00 56 1011.5
20260504033331 47 64 0.0 0.0 0.00 0.00 0.00 54 1011.5
20260504032827 47 64 0.0 0.0 0.00 0.00 0.00 54 1011.4
20260504032324 48 64 0.0 0.0 0.00 0.00 0.00 54 1011.5
20260504031821 48 94 0.0 0.0 0.00 0.00 0.00 55 1011.6
20260504031318 47 82 0.0 0.0 0.00 0.00 0.00 55 1011.3
20260504030814 47 65 0.0 0.0 0.00 0.00 0.00 56 1011.6
20260504030312 47 77 0.0 0.0 0.00 0.00 0.00 58 1011.5
20260504025808 47 67 0.0 0.0 0.00 0.00 0.00 56 1011.4
20260504025305 46 79 0.0 0.0 0.00 0.00 0.00 57 1011.6
20260504024801 46 94 0.0 0.0 0.00 0.00 0.00 56 1011.5
20260504024258 45 76 0.0 0.0 0.00 0.00 0.00 59 1011.4
20260504023755 46 54 0.0 0.0 0.00 0.00 0.00 58 1011.4
20260504023251 46 59 0.0 0.0 0.00 0.00 0.00 58 1011.4
20260504022747 46 63 0.0 0.0 0.00 0.00 0.00 58 1011.4
20260504022244 47 63 0.0 0.0 0.00 0.00 0.00 57 1011.6
20260504021741 48 73 0.0 0.0 0.00 0.00 0.00 57 1011.4
20260504021238 48 64 0.0 0.0 0.00 0.00 0.00 55 1011.7
20260504020735 48 85 0.0 0.0 0.00 0.00 0.00 53 1011.5
20260504020231 48 67 0.0 0.0 0.00 0.00 0.00 51 1011.2
20260504015728 49 63 0.0 0.0 0.00 0.00 0.00 52 1011.4
20260504015224 49 85 0.0 0.0 0.00 0.00 0.00 52 1011.1
20260504014720 49 91 0.0 0.0 0.00 0.00 0.00 51 1011.5
20260504014217 48 76 0.0 0.0 0.00 0.00 0.00 50 1011.2
20260504013715 48 72 0.0 0.0 0.00 0.00 0.00 52 1011.2
20260504013212 48 74 0.0 0.0 0.00 0.00 0.00 51 1011.2
20260504012708 49 67 0.0 0.0 0.00 0.00 0.00 51 1011.0
20260504012206 49 74 0.0 0.0 0.00 0.00 0.00 51 1011.2
20260504011703 50 71 0.0 0.0 0.00 0.00 0.00 50 1011.3
20260504011159 50 90 0.0 0.0 0.00 0.00 0.00 48 1011.1
20260504010655 50 76 0.0 0.0 0.00 0.00 0.00 49 1010.8
20260504010151 50 79 0.0 0.0 0.00 0.00 0.00 49 1011.0
20260504005648 51 111 0.0 0.0 0.00 0.00 0.00 47 1010.7
20260504005145 51 96 0.0 0.0 0.00 0.00 0.00 46 1010.6
20260504004643 52 83 0.0 0.0 0.00 0.00 0.00 46 1010.8
20260504004140 52 99 0.0 0.0 0.00 0.00 0.00 44 1010.7
20260504003636 52 100 0.0 0.0 0.00 0.00 0.00 44 1010.6
20260504003133 53 86 0.0 0.0 0.00 0.00 0.00 43 1010.4
20260504002630 53 91 0.0 0.0 0.00 0.00 0.00 42 1010.5
20260504002128 53 93 0.0 0.0 0.00 0.00 0.00 40 1010.2
20260504001625 54 88 0.0 0.0 0.00 0.00 0.00 41 1010.3
20260504001121 54 89 0.0 1.0 0.00 0.00 0.00 40 1010.2
20260504000619 54 89 0.0 0.0 0.00 0.00 0.00 40 1010.2
20260504000116 55 80 0.0 0.0 0.00 0.00 0.00 41 1010.2
20260503235614 55 85 0.0 1.0 0.00 0.00 0.00 38 1010.0
20260503235110 56 49 0.0 0.0 0.00 0.00 0.00 38 1010.0
20260503234608 56 84 0.0 1.0 0.00 0.00 0.00 37 1010.1
20260503234106 57 84 0.0 1.0 0.00 0.00 0.00 36 1010.0
20260503233603 57 11 1.0 2.0 0.00 0.00 0.00 35 1009.9
20260503233058 57 64 0.0 6.0 0.00 0.00 0.00 34 1009.9
20260503232555 58 82 0.0 1.0 0.00 0.00 0.00 35 1009.8
20260503232053 58 26 1.0 2.0 0.00 0.00 0.00 34 1009.9
20260503231551 58 30 1.0 3.0 0.00 0.00 0.00 33 1010.0
20260503231047 59 75 0.0 2.0 0.00 0.00 0.00 32 1009.8
20260503230544 59 59 0.0 1.0 0.00 0.00 0.00 32 1009.9
20260503230041 59 1 1.0 7.0 0.00 0.00 0.00 31 1009.9
20260503225538 59 339 3.0 4.0 0.00 0.00 0.00 30 1009.8
20260503225033 59 4 2.0 2.0 0.00 0.00 0.00 31 1009.7
20260503224531 59 16 3.0 8.0 0.00 0.00 0.00 31 1009.9
20260503224028 60 41 3.0 4.0 0.00 0.00 0.00 30 1009.9
20260503223526 60 264 5.0 8.0 0.00 0.00 0.00 30 1009.5
20260503223021 61 8 1.0 7.0 0.00 0.00 0.00 30 1009.8
20260503222520 60 340 0.0 2.0 0.00 0.00 0.00 30 1009.7
20260503222018 61 17 6.0 10.0 0.00 0.00 0.00 28 1009.7
20260503221516 61 311 4.0 6.0 0.00 0.00 0.00 28 1009.7
20260503221013 61 222 2.0 7.0 0.00 0.00 0.00 29 1009.6
20260503220509 61 8 3.0 4.0 0.00 0.00 0.00 29 1009.8
20260503220006 61 335 2.0 3.0 0.00 0.00 0.00 29 1009.9
20260503215503 61 118 1.0 8.0 0.00 0.00 0.00 29 1009.7
20260503215000 60 61 2.0 4.0 0.00 0.00 0.00 29 1009.8
20260503214458 60 331 4.0 8.0 0.00 0.00 0.00 28 1009.8
20260503213955 61 311 5.0 9.0 0.00 0.00 0.00 28 1009.7
20260503213453 61 326 3.0 4.0 0.00 0.00 0.00 29 1009.5
20260503212949 60 24 0.0 9.0 0.00 0.00 0.00 30 1009.4
20260503212447 60 11 1.0 10.0 0.00 0.00 0.00 29 1009.7
20260503211944 60 355 1.0 4.0 0.00 0.00 0.00 30 1009.7
20260503211441 60 127 0.0 3.0 0.00 0.00 0.00 31 1009.6
20260503210936 59 3 5.0 9.0 0.00 0.00 0.00 30 1009.9
20260503210434 59 324 3.0 8.0 0.00 0.00 0.00 30 1009.6
20260503205934 60 350 2.0 11.0 0.00 0.00 0.00 29 1009.8
20260503205431 60 359 3.0 13.0 0.00 0.00 0.00 29 1009.7
20260503204927 60 297 2.0 7.0 0.00 0.00 0.00 30 1009.7
20260503204425 60 154 2.0 6.0 0.00 0.00 0.00 29 1009.6
20260503203922 60 344 1.0 4.0 0.00 0.00 0.00 29 1010.0
20260503203419 60 12 2.0 6.0 0.00 0.00 0.00 30 1009.8
20260503202916 60 298 3.0 7.0 0.00 0.00 0.00 31 1010.2
20260503202414 60 15 0.0 3.0 0.00 0.00 0.00 33 1010.0
20260503201912 60 358 2.0 11.0 0.00 0.00 0.00 29 1009.9
20260503201409 59 355 6.0 9.0 0.00 0.00 0.00 32 1009.9
20260503200906 57 327 5.0 8.0 0.00 0.00 0.00 32 1010.0
20260503200402 58 310 3.0 11.0 0.00 0.00 0.00 33 1009.9
20260503195859 60 13 2.0 13.0 0.00 0.00 0.00 31 1010.1
20260503195356 59 328 3.0 9.0 0.00 0.00 0.00 33 1010.0
20260503194853 59 317 5.0 9.0 0.00 0.00 0.00 32 1010.1
20260503194349 58 4 4.0 6.0 0.00 0.00 0.00 33 1010.1
20260503193845 59 337 11.0 14.0 0.00 0.00 0.00 30 1010.3
20260503193341 58 267 4.0 16.0 0.00 0.00 0.00 32 1010.4
20260503192837 58 7 4.0 11.0 0.00 0.00 0.00 32 1010.3
20260503192333 59 323 4.0 9.0 0.00 0.00 0.00 31 1010.4
20260503191829 59 319 6.0 13.0 0.00 0.00 0.00 31 1010.4
20260503191326 59 37 8.0 10.0 0.00 0.00 0.00 31 1010.4
20260503190823 58 248 4.0 11.0 0.00 0.00 0.00 30 1010.3
20260503190320 58 313 5.0 8.0 0.00 0.00 0.00 32 1010.5
20260503185817 56 7 5.0 10.0 0.00 0.00 0.00 33 1010.4
20260503185314 56 38 4.0 15.0 0.00 0.00 0.00 34 1010.3
20260503184814 58 57 8.0 13.0 0.00 0.00 0.00 32 1010.7
20260503184310 58 16 2.0 8.0 0.00 0.00 0.00 35 1010.7
20260503183806 57 275 1.0 9.0 0.00 0.00 0.00 36 1010.6
20260503183303 56 332 10.0 14.0 0.00 0.00 0.00 33 1010.9
20260503182800 58 287 5.0 7.0 0.00 0.00 0.00 31 1011.0
20260503182300 57 23 3.0 8.0 0.00 0.00 0.00 35 1010.8
20260503181756 57 354 1.0 8.0 0.00 0.00 0.00 38 1010.7
20260503181253 57 358 7.0 11.0 0.00 0.00 0.00 33 1010.7
20260503180749 57 259 4.0 14.0 0.00 0.00 0.00 33 1010.6
20260503180248 57 348 9.0 14.0 0.00 0.00 0.00 32 1010.7
20260503175744 58 346 6.0 11.0 0.00 0.00 0.00 32 1010.8
20260503175242 56 23 3.0 10.0 0.00 0.00 0.00 33 1010.8
20260503174738 55 342 11.0 16.0 0.00 0.00 0.00 34 1011.1
20260503174236 55 323 4.0 6.0 0.00 0.00 0.00 36 1011.0